TimeAKDT,TemperatureF,Dew PointF,Humidity,Sea Level PressureIn,VisibilityMPH,Wind Direction,Wind SpeedMPH,Gust SpeedMPH,PrecipitationIn,Events,Conditions,WindDirDegrees,DateUTC
12:53 AM,55.9,51.1,84,30.11,10.0,Calm,Calm,-,N/A,,Overcast,0,2012-08-16 08:53:00
1:53 AM,55.0,50.0,83,30.11,10.0,Calm,Calm,-,N/A,,Overcast,0,2012-08-16 09:53:00
2:53 AM,53.1,50.0,89,30.11,10.0,Calm,Calm,-,N/A,,Overcast,0,2012-08-16 10:53:00
3:53 AM,54.0,50.0,86,30.11,10.0,Calm,Calm,-,N/A,,Overcast,0,2012-08-16 11:53:00
4:53 AM,53.1,50.0,89,30.11,10.0,Calm,Calm,-,N/A,,Overcast,0,2012-08-16 12:53:00
5:53 AM,52.0,48.9,89,30.12,10.0,Calm,Calm,-,N/A,,Overcast,0,2012-08-16 13:53:00
6:53 AM,53.1,48.9,86,30.11,10.0,Calm,Calm,-,N/A,,Overcast,0,2012-08-16 14:53:00
7:53 AM,55.0,50.0,83,30.12,10.0,Calm,Calm,-,N/A,,Overcast,0,2012-08-16 15:53:00
8:53 AM,54.0,50.0,86,30.12,10.0,Calm,Calm,-,N/A,,Overcast,0,2012-08-16 16:53:00
9:53 AM,55.9,50.0,80,30.12,10.0,Calm,Calm,-,N/A,,Overcast,0,2012-08-16 17:53:00
10:53 AM,60.1,51.1,72,30.11,10.0,Calm,Calm,-,N/A,,Overcast,0,2012-08-16 18:53:00
11:53 AM,57.9,51.1,78,30.10,10.0,SSW,6.9,-,N/A,,Overcast,210,2012-08-16 19:53:00
12:53 PM,59.0,48.9,69,30.10,10.0,SW,16.1,-,N/A,,Overcast,220,2012-08-16 20:53:00
1:53 PM,62.1,48.9,62,30.09,10.0,SSW,13.8,23.0,N/A,,Overcast,200,2012-08-16 21:53:00
2:53 PM,63.0,50.0,63,30.09,10.0,SSW,11.5,18.4,N/A,,Overcast,210,2012-08-16 22:53:00
3:53 PM,57.9,50.0,75,30.08,10.0,SW,10.4,19.6,N/A,,Overcast,220,2012-08-16 23:53:00
4:53 PM,62.1,48.9,62,30.08,10.0,SSW,9.2,19.6,N/A,,Overcast,210,2012-08-17 00:53:00
5:53 PM,63.0,48.9,60,30.07,10.0,SSW,11.5,-,N/A,,Overcast,200,2012-08-17 01:53:00
6:53 PM,61.0,48.9,64,30.06,10.0,SSW,13.8,19.6,N/A,,Overcast,200,2012-08-17 02:53:00
7:53 PM,59.0,50.0,72,30.05,10.0,NNW,5.8,-,N/A,,Overcast,330,2012-08-17 03:53:00
8:53 PM,59.0,50.0,72,30.06,10.0,Calm,Calm,-,N/A,,Overcast,0,2012-08-17 04:53:00
9:53 PM,57.0,51.1,81,30.06,10.0,Calm,Calm,-,N/A,,Overcast,0,2012-08-17 05:53:00
10:53 PM,57.0,52.0,83,30.05,10.0,NE,3.5,-,N/A,,Overcast,50,2012-08-17 06:53:00
11:53 PM,55.9,51.1,84,30.05,10.0,Calm,Calm,-,N/A,,Overcast,0,2012-08-17 07:53:00